Hourly Data Report for May 25, 2004

TORONTO CITY
ONTARIO

43°40'00.000" N
79°24'00.000" W
112.50 m
6158355
71508
XTO

Download Data

Hourly Data (May 2004)
Hourly Data Report for May 25, 2004
TIME
LST
Temp Definition
°C
Dew Point Definition
°C
Rel Hum Definition
%
Precip. Amount Definition
mm

Wind Dir Definition
10's deg

Wind Spd Definition
km/h
Visibility Definition
km
Stn Press Definition
kPa
Hmdx Definition


Wind Chill Definition


Weather Definition


00:00 12.9 10.7 86   LegendMM LegendMM LegendMM 99.87     LegendNANA
01:00 12.1 10.5 90   LegendMM LegendMM LegendMM 99.90     LegendNANA
02:00 11.5 10.6 94   LegendMM LegendMM LegendMM 99.86     LegendNANA
03:00 11.9 10.9 94   LegendMM LegendMM LegendMM 99.81     LegendNANA
04:00 11.6 10.8 95   LegendMM LegendMM LegendMM 99.88     LegendNANA
05:00 11.1 10.6 97   LegendMM LegendMM LegendMM 99.90     LegendNANA
06:00 11.0 10.5 97   LegendMM LegendMM LegendMM 100.00     LegendNANA
07:00 10.7 10.4 98   LegendMM LegendMM LegendMM 100.02     LegendNANA
08:00 10.4 10.0 97   LegendMM LegendMM LegendMM 99.96     LegendNANA
09:00 11.2 10.5 95   LegendMM LegendMM LegendMM 99.88     LegendNANA
10:00 12.2 10.9 92   LegendMM LegendMM LegendMM 99.92     LegendNANA
11:00 11.9 10.7 92   LegendMM LegendMM LegendMM 99.90     LegendNANA
12:00 12.7 11.0 89   LegendMM LegendMM LegendMM 99.84     LegendNANA
13:00 13.0 10.6 85   LegendMM LegendMM LegendMM 99.70     LegendNANA
14:00 13.3 10.5 83   LegendMM LegendMM LegendMM 99.74     LegendNANA
15:00 12.5 10.7 89   LegendMM LegendMM LegendMM 99.65     LegendNANA
16:00 12.8 11.0 89   LegendMM LegendMM LegendMM 99.67     LegendNANA
17:00 11.8 10.8 94   LegendMM LegendMM LegendMM 99.62     LegendNANA
18:00 11.2 10.4 95   LegendMM LegendMM LegendMM 99.55     LegendNANA
19:00 10.9 10.3 96   LegendMM LegendMM LegendMM 99.53     LegendNANA
20:00 10.6 10.2 97   LegendMM LegendMM LegendMM 99.55     LegendNANA
21:00 11.1 10.6 97   LegendMM LegendMM LegendMM 99.50     LegendNANA
22:00 11.4 10.7 95   LegendMM LegendMM LegendMM 99.49     LegendNANA
23:00 11.8 11.0 95   LegendMM LegendMM LegendMM 99.52     LegendNANA

Notes on Data Quality.

Legend

  • E = Estimated
  • M = Missing
  • NA = Not Available*
  • [empty] = Indicates an unobserved value
Date modified: